This is the latest recevied weather packets stored in our database for station/object VE7GEL. If no packets are shown the sender has not sent any weather packets the latest 10 day(s).
| Time | Temp. | Humidity | Pressure | Rain* | Wind** | Luminosity | Snow |
|---|---|---|---|---|---|---|---|
| 1777513502 | 17.22° C | 62% | 1022.5 hPa | 0 mm | - | 206 W/m² | - |
| 1777512758 | 17.22° C | 60% | 1022.3 hPa | 0 mm | - | 256 W/m² | - |
| 1777511860 | 16.67° C | 61% | 1022.5 hPa | 0 mm | - | 313 W/m² | - |
| 1777510959 | 16.67° C | 63% | 1022.7 hPa | 0 mm | - | 373 W/m² | - |
| 1777510057 | 16.11° C | 63% | 1022.9 hPa | 0 mm | - | 433 W/m² | - |
| 1777509157 | 16.11° C | 68% | 1022.9 hPa | 0 mm | - | 495 W/m² | - |
| 1777508258 | 16.67° C | 69% | 1023 hPa | 0 mm | - | 555 W/m² | - |
| 1777507356 | 17.22° C | 60% | 1023.1 hPa | 0 mm | - | 612 W/m² | - |
| 1777506456 | 17.22° C | 61% | 1023.3 hPa | 0 mm | - | 665 W/m² | - |
| 1777505556 | 16.67° C | 63% | 1023.6 hPa | 0 mm | - | 721 W/m² | - |
| 1777504652 | 16.11° C | 67% | 1023.8 hPa | 0 mm | - | 775 W/m² | - |
| 1777504502 | 15.56° C | 67% | 1024.2 hPa | 0 mm | - | 786 W/m² | - |
| 1777503753 | 15° C | 70% | 1024 hPa | 0 mm | - | 822 W/m² | - |
| 1777503602 | 14.44° C | 73% | 1024.4 hPa | 0 mm | - | 831 W/m² | - |
| 1777502851 | 13.33° C | 84% | 1024.2 hPa | 0 mm | - | 868 W/m² | - |
| 1777502703 | 13.33° C | 85% | 1024.5 hPa | 0 mm | - | 877 W/m² | - |
| 1777501950 | 12.78° C | 84% | 1024.3 hPa | 0 mm | - | 904 W/m² | - |
| 1777501051 | 12.78° C | 87% | 1024.3 hPa | 0 mm | - | 192 W/m² | - |
| 1777500902 | 12.78° C | 87% | 1024.6 hPa | 0 mm | - | 163 W/m² | - |
| 1777500148 | 12.78° C | 86% | 1024.2 hPa | 0 mm | - | 67 W/m² | - |
| 1777499248 | 13.33° C | 84% | 1024.2 hPa | 0 mm | - | 64 W/m² | - |
| 1777499134 | 13.33° C | 83% | 1024.5 hPa | 0 mm | - | 64 W/m² | - |
| 1777499102 | 13.33° C | 83% | 1024.5 hPa | 0 mm | - | 64 W/m² | - |
| 1777498348 | 15° C | 78% | 1024.3 hPa | 0 mm | - | 63 W/m² | - |
| 1777497449 | 16.67° C | 64% | 1024.2 hPa | 0 mm | - | 59 W/m² | - |
* Rain latest hour (hover to see other rain measurements)
** Current wind speed in m/s (hover to see current wind gust speed)